Simultaneous Nadir Overpasses (SNOs) Predictions

Prediction of SNOs between LANDSAT-8 and NOAA-19 Satellite Orbit:

Table of predicted SNOs for the next 14.0 days since TLE Epoch: 5/7/2022
Index Date (LANDSAT-8) Time (LANDSAT-8) Lat,Lon (LANDSAT-8) SZA (LANDSAT-8 ) Date (NOAA-19) Time (NOAA-19) Lat,Lon (NOAA-19) SZA (NOAA-19 ) Distance(km) Time Diff (sec)
1 05/08/2022 02:22:30 -80.77, -0.41 114.47 05/08/2022 02:21:46 -80.77, -0.42 114.48 0.31 44
2 05/08/2022 03:11:56 80.77, 167.30 65.54 05/08/2022 03:12:42 80.76, 167.27 65.55 1.80 46
3 05/10/2022 08:45:42 -80.76, -96.27 115.07 05/10/2022 08:45:44 -80.77, -96.44 115.08 3.23 2
4 05/12/2022 14:19:26 80.78, 0.49 64.40 05/12/2022 14:18:40 80.78, 0.31 64.36 3.10 46
5 05/12/2022 15:08:54 -80.75, 167.79 115.67 05/12/2022 15:09:41 -80.77, 167.86 115.63 2.23 47
6 05/14/2022 20:42:38 80.76, -95.55 63.81 05/14/2022 20:42:38 80.78, -95.61 63.82 2.24 0
7 05/17/2022 02:16:23 -80.76, 1.03 116.71 05/17/2022 02:15:37 -80.78, 1.09 116.71 2.38 46
8 05/17/2022 03:05:49 80.76, 168.67 63.29 05/17/2022 03:06:35 80.77, 168.78 63.32 2.18 46



Historial Predications of SNOs between LANDSAT-8 and NOAA-19
